Fort Wayne, IN

6:07 PM EST on November 11, 2019 (GMT -0500)
Fort Wayne International

Weather History for KFWA - September, 2019

Change the Weather History Date:

Saturday, September 28, 2019

  Actual Average Record
Temperature  
Mean Temperature 71 °F 59 °F  
Max Temperature 78 °F 71 °F 89 °F (1999)
Min Temperature 63 °F 47 °F 30 °F (1942)
Degree Days  
Heating Degree Days 0 7  
Month to date heating degree days 17 89  
Since 1 July heating degree days 18 101  
Cooling Degree Days 6 1  
Month to date cooling degree days 121 79  
Year to date cooling degree days 959 796  
Growing Degree Days 20 (Base 50)    
Moisture  
Dew Point 63 °F    
Average Humidity 79    
Maximum Humidity 93    
Minimum Humidity 64    
Precipitation  
Precipitation 0.31 in 0.09 in 1.29 in (1907)
Month to date precipitation 2.55 2.62  
Year to date precipitation 30.82 29.46  
Sea Level Pressure  
Sea Level Pressure 30.04 in    
Wind  
Wind Speed 8 mph (North)    
Max Wind Speed 29 mph    
Max Gust Speed 38 mph    
Visibility 9 miles    
Events Rain , Thunderstorm    
T = Trace of Precipitation, MM = Missing Value Source: NWS Daily Summary

Daily Weather History Graph

Daily Weather History Graph

Search for Another Location

Airport or City:

Astronomy

Sep. 28, 2019 Rise Set
Actual Time 7:34 AM EDT 7:28 PM EDT
Civil Twilight 7:06 AM EDT 7:55 PM EDT
Nautical Twilight 6:34 AM EDT 8:27 PM EDT
Astronomical Twilight 6:02 AM EDT 8:59 PM EDT
Moon 7:08 AM EDT (9/28) 7:53 PM EDT (9/28)
Length of Visible Light 12h 48m
Length of Day
11h 54m
Waning Crescent, 0% of the Moon is Illuminated
Sep 28
Waning Crescent
Sep 28
New
Oct 5
First Quarter
Oct 13
Full
Oct 21
Last Quarter

Hourly Weather History & Observations

Time (EDT) Temp. Dew Point Humidity Pressure Visibility Wind Dir Wind Speed Gust Speed Precip Events Conditions
12:54 AM 64.9 °F 63.0 °F 93% 29.89 in 10.0 mi North 10.4 mph - N/A   Overcast
1:32 AM 66.9 °F 63.0 °F 87% 29.94 in 10.0 mi North 12.7 mph 20.7 mph 0.00 in Rain , Thunderstorm Light Thunderstorms and Rain
1:52 AM 66.2 °F 62.6 °F 88% 29.97 in 4.0 mi West 12.7 mph 20.7 mph 0.03 in Rain , Thunderstorm Heavy Thunderstorms and Rain
1:54 AM 64.9 °F 63.0 °F 93% 29.96 in 2.5 mi West 11.5 mph 20.7 mph 0.06 in Rain , Thunderstorm Heavy Thunderstorms and Rain
2:11 AM 64.9 °F 63.0 °F 93% 29.95 in 3.0 mi NW 5.8 mph - 0.14 in Rain , Thunderstorm Heavy Thunderstorms and Rain
2:36 AM 64.0 °F 63.0 °F 96% 29.92 in 8.0 mi ESE 4.6 mph - 0.18 in Rain Light Rain
2:54 AM 64.0 °F 63.0 °F 96% 29.91 in 10.0 mi South 6.9 mph - N/A Rain Light Rain
3:54 AM 64.0 °F 63.0 °F 96% 29.89 in 10.0 mi Variable 3.5 mph - 0.00 in   Overcast
4:54 AM 64.0 °F 63.0 °F 96% 29.91 in 10.0 mi SSE 3.5 mph - 0.06 in Rain Light Rain
5:54 AM 63.0 °F 62.1 °F 97% 29.92 in 10.0 mi SSE 9.2 mph - 0.00 in   Mostly Cloudy
6:54 AM 64.0 °F 63.0 °F 96% 29.93 in 10.0 mi South 10.4 mph - N/A   Scattered Clouds
7:54 AM 64.0 °F 63.0 °F 96% 30.02 in 10.0 mi NW 6.9 mph - N/A   Mostly Cloudy
8:54 AM 64.0 °F 63.0 °F 96% 30.02 in 10.0 mi Calm Calm - N/A   Mostly Cloudy
9:54 AM 66.0 °F 64.9 °F 96% 30.01 in 10.0 mi SSE 8.1 mph - N/A   Mostly Cloudy
10:54 AM 71.1 °F 66.0 °F 84% 30.02 in 10.0 mi SW 8.1 mph - N/A   Mostly Cloudy
11:54 AM 73.0 °F 64.9 °F 76% 30.04 in 10.0 mi Variable 5.8 mph - 0.00 in   Mostly Cloudy
12:54 PM 73.9 °F 64.9 °F 73% 30.07 in 10.0 mi NW 6.9 mph - N/A   Mostly Cloudy
1:54 PM 75.9 °F 64.9 °F 69% 30.08 in 10.0 mi NW 9.2 mph - N/A   Mostly Cloudy
2:54 PM 77.0 °F 64.9 °F 66% 30.09 in 10.0 mi North 8.1 mph 16.1 mph N/A   Mostly Cloudy
3:54 PM 75.0 °F 64.0 °F 69% 30.10 in 10.0 mi NNW 6.9 mph - N/A   Mostly Cloudy
4:54 PM 75.0 °F 64.0 °F 69% 30.10 in 10.0 mi NNW 5.8 mph - N/A   Mostly Cloudy
5:54 PM 73.9 °F 64.0 °F 71% 30.12 in 10.0 mi North 3.5 mph - N/A   Mostly Cloudy
6:54 PM 73.0 °F 64.0 °F 73% 30.12 in 10.0 mi North 9.2 mph - N/A   Mostly Cloudy
7:54 PM 70.0 °F 64.0 °F 81% 30.14 in 10.0 mi NNE 10.4 mph - N/A   Mostly Cloudy
8:54 PM 68.0 °F 62.1 °F 81% 30.16 in 10.0 mi NE 13.8 mph - N/A   Overcast
9:40 PM 66.0 °F 62.1 °F 87% 30.19 in 10.0 mi ENE 15.0 mph 20.7 mph N/A   Overcast
9:54 PM 64.9 °F 61.0 °F 87% 30.19 in 10.0 mi ENE 15.0 mph - N/A   Overcast
10:54 PM 64.0 °F 60.1 °F 87% 30.21 in 10.0 mi ENE 10.4 mph - N/A   Overcast
11:54 PM 64.0 °F 60.1 °F 87% 30.23 in 10.0 mi ENE 9.2 mph - N/A   Overcast